This is the latest recevied weather packets stored in our database for station/object KB3KAV. If no packets are shown the sender has not sent any weather packets the latest 10 day(s).
| Time | Temp. | Humidity | Pressure | Rain* | Wind** | Luminosity | Snow |
|---|---|---|---|---|---|---|---|
| 1777536963 | 8.89° C | 95% | 1035.3 hPa | 0 mm | - | 0 W/m² | - |
| 1777536358 | 8.89° C | 95% | 1035.4 hPa | 0 mm | - | 0 W/m² | - |
| 1777535756 | 8.89° C | 95% | 1035.4 hPa | 0 mm | - | 0 W/m² | - |
| 1777535150 | 8.89° C | 95% | 1035.5 hPa | 0 mm | - | 0 W/m² | - |
| 1777534549 | 8.89° C | 95% | 1035.6 hPa | 1.78 mm | - | 0 W/m² | - |
| 1777533945 | 8.89° C | 95% | 1035.5 hPa | 0 mm | - | 0 W/m² | - |
| 1777533343 | 9.44° C | 95% | 1035.7 hPa | 1.27 mm | - | 0 W/m² | - |
| 1777532742 | 9.44° C | 95% | 1035.6 hPa | 0 mm | - | 0 W/m² | - |
| 1777532142 | 8.89° C | 95% | 1035.7 hPa | 1.78 mm | - | 0 W/m² | - |
| 1777531538 | 9.44° C | 95% | 1035.8 hPa | 3.05 mm | - | 0 W/m² | - |
| 1777530934 | 9.44° C | 95% | 1036.1 hPa | 3.05 mm | - | 0 W/m² | - |
| 1777530334 | 9.44° C | 95% | 1036.1 hPa | 0 mm | - | 0 W/m² | - |
| 1777529734 | 9.44° C | 95% | 1036.1 hPa | 0 mm | - | 0 W/m² | - |
| 1777529132 | 9.44° C | 95% | 1036 hPa | 0 mm | - | 0 W/m² | - |
| 1777528531 | 9.44° C | 95% | 1036 hPa | 0 mm | - | 0 W/m² | - |
| 1777527926 | 9.44° C | 95% | 1036 hPa | 0 mm | - | 0 W/m² | - |
| 1777527323 | 9.44° C | 95% | 1036.1 hPa | 0 mm | - | 0 W/m² | - |
| 1777526721 | 9.44° C | 95% | 1036 hPa | 0 mm | - | 0 W/m² | - |
| 1777526117 | 9.44° C | 95% | 1035.9 hPa | 0 mm | - | 0 W/m² | - |
| 1777525517 | 9.44° C | 95% | 1036.4 hPa | 0 mm | - | 0 W/m² | - |
| 1777524915 | 9.44° C | 95% | 1036.1 hPa | 0 mm | - | 0 W/m² | - |
| 1777524311 | 10° C | 95% | 1036.2 hPa | 0 mm | - | 0 W/m² | - |
| 1777523709 | 10° C | 95% | 1036.4 hPa | 0 mm | - | 0 W/m² | - |
| 1777523108 | 10° C | 95% | 1036.5 hPa | 0 mm | - | 0 W/m² | - |
| 1777522507 | 10° C | 95% | 1036.6 hPa | 0 mm | - | 0 W/m² | - |
* Rain latest hour (hover to see other rain measurements)
** Current wind speed in m/s (hover to see current wind gust speed)